When you browse on this site, cookies collect data to enhance your experience and personalize the content and advertising you see.
Visit our Privacy Policy to learn more. By continuing to use the site, you agree to this use of cookies and data.
  • In Czech Republic
  • List of Countries
  • For 7 days
  • Water Temperature
  • Weather Map
  • Weather Widgets
  • user-avatar
    Login

    Hourly Weather Algiers

    Today, 21 January, Tuesday

    Time Temperature Precipitation Wind Pressure Humidity
    00:00 +12°C° 0 mm 5 mps 746 mmHg 63%
    01:00 +10°C° 0 mm 5 mps 746 mmHg 63%
    02:00 +11°C° 0 mm 4 mps 745 mmHg 63%
    03:00 +11°C° 0 mm 4 mps 745 mmHg 64%
    04:00 +10°C° 0.1 mm 5 mps 745 mmHg 62%
    05:00 +10°C° 0.1 mm 6 mps 745 mmHg 61%
    06:00 +10°C° 0.1 mm 8 mps 744 mmHg 60%
    07:00 +11°C° 0.1 mm 9 mps 745 mmHg 56%
    08:00 +11°C° 0.1 mm 10 mps 745 mmHg 53%
    09:00 +12°C° 0.1 mm 11 mps 746 mmHg 49%
    10:00 +13°C° 0 mm 10 mps 746 mmHg 46%
    11:00 +15°C° 0 mm 8 mps 746 mmHg 43%
    12:00 +16°C° 0 mm 6 mps 746 mmHg 39%
    13:00 +16°C° 0 mm 6 mps 746 mmHg 39%
    14:00 +16°C° 0 mm 5 mps 746 mmHg 39%
    15:00 +17°C° 0 mm 5 mps 746 mmHg 39%
    16:00 +16°C° 0 mm 5 mps 747 mmHg 41%
    17:00 +14°C° 0 mm 5 mps 747 mmHg 43%
    18:00 +13°C° 0 mm 5 mps 748 mmHg 45%
    19:00 +13°C° 0 mm 4 mps 748 mmHg 45%
    20:00 +13°C° 0 mm 4 mps 749 mmHg 45%
    21:00 +12°C° 0 mm 3 mps 749 mmHg 45%
    22:00 +12°C° 0 mm 3 mps 749 mmHg 46%
    23:00 +12°C° 0 mm 3 mps 749 mmHg 47%

    Tomorrow, 22 January, Wednesday

    Time Temperature Precipitation Wind Pressure Humidity
    00:00 +11°C° 0 mm 4 mps 749 mmHg 48%
    01:00 +11°C° 0 mm 3 mps 749 mmHg 48%
    02:00 +11°C° 0 mm 3 mps 749 mmHg 48%
    03:00 +11°C° 0 mm 3 mps 749 mmHg 48%
    04:00 +11°C° 0 mm 3 mps 749 mmHg 49%
    05:00 +11°C° 0 mm 3 mps 749 mmHg 49%
    06:00 +11°C° 0 mm 3 mps 749 mmHg 50%
    07:00 +12°C° 0 mm 4 mps 749 mmHg 50%
    08:00 +13°C° 0 mm 4 mps 749 mmHg 51%
    09:00 +13°C° 0 mm 5 mps 750 mmHg 51%
    10:00 +15°C° 0 mm 5 mps 749 mmHg 48%
    11:00 +16°C° 0 mm 5 mps 749 mmHg 44%
    12:00 +19°C° 0 mm 5 mps 748 mmHg 41%
    13:00 +19°C° 0 mm 5 mps 748 mmHg 42%
    14:00 +19°C° 0 mm 5 mps 748 mmHg 43%
    15:00 +19°C° 0 mm 5 mps 748 mmHg 44%
    16:00 +16°C° 0.4 mm 5 mps 748 mmHg 51%
    17:00 +15°C° 0.4 mm 5 mps 748 mmHg 58%
    18:00 +13°C° 0.4 mm 6 mps 749 mmHg 66%
    19:00 +13°C° 0.1 mm 6 mps 749 mmHg 65%
    20:00 +13°C° 0.1 mm 5 mps 750 mmHg 63%
    21:00 +13°C° 0.1 mm 5 mps 751 mmHg 62%
    22:00 +13°C° 0 mm 4 mps 751 mmHg 62%
    23:00 +12°C° 0 mm 3 mps 751 mmHg 61%

    Day after tomorrow, 23 January, Thursday

    Time Temperature Precipitation Wind Pressure Humidity
    00:00 +13°C° 0 mm 2 mps 751 mmHg 60%
    01:00 +13°C° 0 mm 2 mps 751 mmHg 59%
    02:00 +12°C° 0 mm 2 mps 751 mmHg 58%
    03:00 +12°C° 0 mm 2 mps 751 mmHg 57%
    04:00 +12°C° 0 mm 2 mps 751 mmHg 57%
    05:00 +12°C° 0 mm 2 mps 751 mmHg 56%
    06:00 +11°C° 0 mm 3 mps 751 mmHg 55%
    07:00 +13°C° 0 mm 2 mps 751 mmHg 54%
    08:00 +14°C° 0 mm 2 mps 752 mmHg 52%
    09:00 +15°C° 0 mm 2 mps 752 mmHg 50%
    10:00 +16°C° 0 mm 2 mps 752 mmHg 47%
    11:00 +17°C° 0 mm 2 mps 752 mmHg 43%
    12:00 +18°C° 0 mm 2 mps 752 mmHg 39%
    13:00 +18°C° 0 mm 2 mps 751 mmHg 40%
    14:00 +19°C° 0 mm 2 mps 751 mmHg 41%
    15:00 +19°C° 0 mm 2 mps 751 mmHg 41%
    16:00 +18°C° 0 mm 3 mps 751 mmHg 46%
    17:00 +16°C° 0 mm 3 mps 751 mmHg 52%
    18:00 +14°C° 0 mm 3 mps 751 mmHg 57%
    19:00 +14°C° 0 mm 3 mps 751 mmHg 56%
    20:00 +13°C° 0 mm 3 mps 751 mmHg 55%
    21:00 +13°C° 0 mm 3 mps 752 mmHg 54%
    22:00 +13°C° 0 mm 3 mps 751 mmHg 54%
    23:00 +13°C° 0 mm 3 mps 751 mmHg 54%

    24 January, Friday

    Time Temperature Precipitation Wind Pressure Humidity
    00:00 +12°C° 0 mm 3 mps 751 mmHg 54%
    01:00 +12°C° 0 mm 3 mps 751 mmHg 55%
    02:00 +12°C° 0 mm 3 mps 751 mmHg 55%
    03:00 +12°C° 0 mm 3 mps 751 mmHg 56%
    04:00 +12°C° 0 mm 3 mps 751 mmHg 54%
    05:00 +12°C° 0 mm 3 mps 751 mmHg 53%
    06:00 +12°C° 0 mm 3 mps 751 mmHg 51%
    07:00 +12°C° 0 mm 3 mps 751 mmHg 50%
    08:00 +13°C° 0 mm 3 mps 751 mmHg 48%
    09:00 +14°C° 0 mm 3 mps 752 mmHg 47%
    10:00 +17°C° 0 mm 3 mps 751 mmHg 43%
    11:00 +18°C° 0 mm 2 mps 751 mmHg 40%
    12:00 +19°C° 0 mm 2 mps 751 mmHg 36%
    13:00 +19°C° 0 mm 2 mps 751 mmHg 37%
    14:00 +19°C° 0 mm 2 mps 750 mmHg 38%
    15:00 +19°C° 0 mm 2 mps 750 mmHg 38%
    16:00 +18°C° 0 mm 2 mps 750 mmHg 41%
    17:00 +17°C° 0 mm 2 mps 750 mmHg 44%
    18:00 +14°C° 0 mm 3 mps 750 mmHg 47%
    19:00 +14°C° 0 mm 3 mps 751 mmHg 47%
    20:00 +14°C° 0 mm 3 mps 751 mmHg 46%
    21:00 +14°C° 0 mm 3 mps 751 mmHg 46%
    22:00 +13°C° 0 mm 4 mps 751 mmHg 46%
    23:00 +13°C° 0 mm 4 mps 750 mmHg 47%

    25 January, Saturday

    Time Temperature Precipitation Wind Pressure Humidity
    00:00 +13°C° 0 mm 4 mps 750 mmHg 47%
    01:00 +13°C° 0 mm 4 mps 750 mmHg 48%
    02:00 +13°C° 0 mm 5 mps 750 mmHg 48%
    03:00 +13°C° 0 mm 5 mps 749 mmHg 49%
    04:00 +13°C° 0 mm 5 mps 749 mmHg 48%
    05:00 +13°C° 0 mm 5 mps 749 mmHg 48%
    06:00 +13°C° 0 mm 5 mps 749 mmHg 48%
    07:00 +14°C° 0 mm 4 mps 749 mmHg 48%
    08:00 +14°C° 0 mm 4 mps 749 mmHg 48%
    09:00 +16°C° 0 mm 3 mps 750 mmHg 48%
    10:00 +17°C° 0 mm 2 mps 749 mmHg 46%
    11:00 +18°C° 0 mm 2 mps 749 mmHg 43%
    12:00 +20°C° 0 mm 1 mps 749 mmHg 40%
    13:00 +19°C° 0 mm 2 mps 749 mmHg 42%
    14:00 +18°C° 0 mm 2 mps 748 mmHg 43%
    15:00 +18°C° 0 mm 3 mps 748 mmHg 44%
    16:00 +17°C° 0 mm 2 mps 749 mmHg 51%
    17:00 +16°C° 0 mm 2 mps 749 mmHg 57%
    18:00 +15°C° 0 mm 2 mps 749 mmHg 64%
    19:00 +13°C° 0.1 mm 3 mps 750 mmHg 63%
    20:00 +13°C° 0.1 mm 3 mps 750 mmHg 62%
    21:00 +13°C° 0.1 mm 4 mps 750 mmHg 62%
    22:00 +13°C° 0.2 mm 4 mps 750 mmHg 64%
    23:00 +13°C° 0.2 mm 5 mps 751 mmHg 66%

    26 January, Sunday

    Time Temperature Precipitation Wind Pressure Humidity
    00:00 +13°C° 0.2 mm 5 mps 751 mmHg 69%
    01:00 +13°C° 0.1 mm 6 mps 751 mmHg 70%
    02:00 +11°C° 0.1 mm 6 mps 751 mmHg 71%
    03:00 +11°C° 0.1 mm 6 mps 751 mmHg 71%
    04:00 +11°C° 0.2 mm 6 mps 751 mmHg 72%
    05:00 +11°C° 0.2 mm 6 mps 751 mmHg 73%
    06:00 +11°C° 0.2 mm 6 mps 752 mmHg 74%
    07:00 +11°C° 0.3 mm 6 mps 752 mmHg 72%
    08:00 +13°C° 0.3 mm 6 mps 753 mmHg 70%
    09:00 +13°C° 0.3 mm 6 mps 753 mmHg 68%
    10:00 +14°C° 0.4 mm 6 mps 753 mmHg 66%
    11:00 +15°C° 0.4 mm 5 mps 753 mmHg 65%
    12:00 +15°C° 0.4 mm 4 mps 753 mmHg 63%
    13:00 +15°C° 0.2 mm 4 mps 753 mmHg 62%
    14:00 +16°C° 0.2 mm 3 mps 753 mmHg 60%
    15:00 +16°C° 0.2 mm 3 mps 753 mmHg 59%
    16:00 +16°C° 0.1 mm 3 mps 753 mmHg 63%
    17:00 +14°C° 0.1 mm 3 mps 754 mmHg 68%
    18:00 +13°C° 0.1 mm 3 mps 754 mmHg 72%
    19:00 +12°C° 0.1 mm 3 mps 755 mmHg 74%
    20:00 +12°C° 0.1 mm 3 mps 755 mmHg 76%
    21:00 +13°C° 0.1 mm 2 mps 756 mmHg 77%
    22:00 +13°C° 0.1 mm 2 mps 756 mmHg 78%
    23:00 +12°C° 0.1 mm 2 mps 756 mmHg 78%
    Show more